STARLINK-32404, 61710

Orbit data source: Space-Track

STARLINK-32404, 61710 is a payload satellite owned by SpaceX/Seattle (US) in LEO that was launched on Wed, 30 Oct 2024 UTC via an FALCON 9 launch vehicle from the Air Force Eastern Test Range (AFETR). Payload-class satellites include a variety of spacecraft equipped with specific instruments for various scientific and technological missions. These include communications satellites like Starlink; space stations such as the ISS; scientific satellites like the Hubble; Earth observation satellites from companies like Planet Labs, Umbra, and HawkEye 360; GPS; miniature CubeSats for education and research; and military/defense satellites.

Loading next visibility...
Identifier
61710, 2024-196D
Orbit
LEO
Country
Flag of USUS
Related business
Manufacturer
SpaceX/Seattle
Mission
Operational Commercial Communications
Bus & Motor
STARLINK V2M, Unknown motor
Mass
730 kg wet, ~700 kg dry
Launch date (UTC)
2024-10-30 (2 years ago)
Launch vehicle
FALCON 9
Launch site
Air Force Eastern Test Range (AFETR)
Object type
Payload
Rocket body
Debris
Shape & HBR
Box + 2 Pan, 17.7 m
Radar Cross Section
33.884 m², Large (>1 m²)

Expand to show TLE details & history
Last TLE update: 10 hours ago

TLE from 10 hours ago
0 STARLINK-32404
1 61710U 24196D   26257.85076219 -.00000930  00000-0 -16393-4 0  9997
2 61710  53.1599 300.1797 0001068  84.0085 276.1040 15.34391101106157
Epoch: 2026-09-14T20:25Z
TLE epoch observation values (Epoch: 2026-09-14T20:25:05.853Z)
Latitude
0.00005°
Longitude
0.08021°
Altitude
463.553 km
Speed
7.636 km/s
True Right ascension
20h 00m 43s
True Declination
0° 00' 00"
Sunlit
Object was in full shadow at epoch
Visualization orbit readout
Latitude
Unknown
Longitude
Unknown
Altitude
Unknown
Speed
Unknown
Apparent Right ascension
Unknown
Apparent Declination
Unknown
Sunlit
N/A
Visualization observer readout
Local Sidereal Time
22:36:21
Azimuth
Unknown
Elevation
Unknown
Doppler factor
Unknown
Orbital elements
Apogee altitude
463.717 km
Perigee altitude
462.256 km
Semi-major axis
6,841.124 km
Eccentricity
0.00011
Inclination
53.1599°
RAAN
300.1797°
Arg. of periapsis
84.0085°
True anomaly
276.09183°
Mean anomaly
276.104°
Eccentric anomaly
276.09792°
Mean motion
3.83577 °/min
Orbital period
93.85 mins
BSTAR
-0.000016393
Loading maneuver chart data...
Computing Atmospheric mass density...
Loading historical data...
Loading historical data...
Loading historical data...
Loading historical data...
Loading historical data...
Loading historical data...
Loading historical data...

Documentation

Showing up to 5 results
|